Year,Month,Day,Hour,Minute,Value (Times are PST for temperature in C)
2015,07,04,00,00,19.60
2015,07,04,00,01,19.60
2015,07,04,00,02,19.60
2015,07,04,00,03,19.50
2015,07,04,00,04,19.50
2015,07,04,00,05,19.40
2015,07,04,00,06,19.40
2015,07,04,00,07,19.40
2015,07,04,00,08,19.40
2015,07,04,00,09,19.40
2015,07,04,00,10,19.30
2015,07,04,00,11,19.20
2015,07,04,00,12,19.20
2015,07,04,00,13,19.10
2015,07,04,00,14,19.10
2015,07,04,00,15,19.10
2015,07,04,00,16,19.00
2015,07,04,00,17,18.90
2015,07,04,00,18,18.90
2015,07,04,00,19,18.90
2015,07,04,00,20,18.90
2015,07,04,00,21,18.90
2015,07,04,00,22,18.80
2015,07,04,00,23,18.80
2015,07,04,00,24,18.80
2015,07,04,00,25,18.80
2015,07,04,00,26,18.80
2015,07,04,00,27,18.70
2015,07,04,00,28,18.70
2015,07,04,00,29,18.70
2015,07,04,00,30,18.70
2015,07,04,00,31,18.70
2015,07,04,00,32,18.70
2015,07,04,00,33,18.70
2015,07,04,00,34,18.60
2015,07,04,00,35,18.60
2015,07,04,00,36,18.60
2015,07,04,00,37,18.50
2015,07,04,00,38,18.50
2015,07,04,00,39,18.50
2015,07,04,00,40,18.50
2015,07,04,00,41,18.50
2015,07,04,00,42,18.40
2015,07,04,00,43,18.40
2015,07,04,00,44,18.40
2015,07,04,00,45,18.40
2015,07,04,00,46,18.40
2015,07,04,00,47,18.40
2015,07,04,00,48,18.40
2015,07,04,00,49,18.40
2015,07,04,00,50,18.40
2015,07,04,00,51,18.40
2015,07,04,00,52,18.40
2015,07,04,00,53,18.40
2015,07,04,00,54,18.50
2015,07,04,00,55,18.50
2015,07,04,00,56,18.50
2015,07,04,00,57,18.60
2015,07,04,00,58,18.60
2015,07,04,00,59,18.60
2015,07,04,01,00,18.60
2015,07,04,01,01,18.70
2015,07,04,01,02,18.70
2015,07,04,01,03,18.70
2015,07,04,01,04,18.70
2015,07,04,01,05,18.80
2015,07,04,01,06,18.80
2015,07,04,01,07,18.80
2015,07,04,01,08,18.80
2015,07,04,01,09,18.80
2015,07,04,01,10,18.90
2015,07,04,01,11,18.90
2015,07,04,01,12,18.90
2015,07,04,01,13,18.90
2015,07,04,01,14,18.90
2015,07,04,01,15,18.90
2015,07,04,01,16,18.90
2015,07,04,01,17,18.90
2015,07,04,01,18,18.80
2015,07,04,01,19,18.80
2015,07,04,01,20,18.80
2015,07,04,01,21,18.80
2015,07,04,01,22,18.90
2015,07,04,01,23,18.90
2015,07,04,01,24,18.90
2015,07,04,01,25,18.80
2015,07,04,01,26,18.80
2015,07,04,01,27,18.80
2015,07,04,01,28,18.70
2015,07,04,01,29,18.60
2015,07,04,01,30,18.60
2015,07,04,01,31,18.60
2015,07,04,01,32,18.50
2015,07,04,01,33,18.50
2015,07,04,01,34,18.40
2015,07,04,01,35,18.40
2015,07,04,01,36,18.40
2015,07,04,01,37,18.40
2015,07,04,01,38,18.40
2015,07,04,01,39,18.40
2015,07,04,01,40,18.40
2015,07,04,01,41,18.40
2015,07,04,01,42,18.40
2015,07,04,01,43,18.40
2015,07,04,01,44,18.40
2015,07,04,01,45,18.40
2015,07,04,01,46,18.40
2015,07,04,01,47,18.40
2015,07,04,01,48,18.40
2015,07,04,01,49,18.40
2015,07,04,01,50,18.40
2015,07,04,01,51,18.40
2015,07,04,01,52,18.30
2015,07,04,01,53,18.30
2015,07,04,01,54,18.30
2015,07,04,01,55,18.30
2015,07,04,01,56,18.20
2015,07,04,01,57,18.20
2015,07,04,01,58,18.20
2015,07,04,01,59,18.20
2015,07,04,02,00,18.10
2015,07,04,02,01,18.00
2015,07,04,02,02,17.90
2015,07,04,02,03,17.90
2015,07,04,02,04,17.90
2015,07,04,02,05,17.90
2015,07,04,02,06,17.80
2015,07,04,02,07,17.70
2015,07,04,02,08,17.70
2015,07,04,02,09,17.60
2015,07,04,02,10,17.50
2015,07,04,02,11,17.50
2015,07,04,02,12,17.40
2015,07,04,02,13,17.40
2015,07,04,02,14,17.30
2015,07,04,02,15,17.30
2015,07,04,02,16,17.30
2015,07,04,02,17,17.20
2015,07,04,02,18,17.20
2015,07,04,02,19,17.10
2015,07,04,02,20,17.10
2015,07,04,02,21,17.00
2015,07,04,02,22,17.00
2015,07,04,02,23,16.90
2015,07,04,02,24,16.90
2015,07,04,02,25,16.90
2015,07,04,02,26,16.80
2015,07,04,02,27,16.80
2015,07,04,02,28,16.80
2015,07,04,02,29,16.70
2015,07,04,02,30,16.70
2015,07,04,02,31,16.70
2015,07,04,02,32,16.70
2015,07,04,02,33,16.70
2015,07,04,02,34,16.70
2015,07,04,02,35,16.60
2015,07,04,02,36,16.60
2015,07,04,02,37,16.60
2015,07,04,02,38,16.60
2015,07,04,02,39,16.60
2015,07,04,02,40,16.60
2015,07,04,02,41,16.60
2015,07,04,02,42,16.60
2015,07,04,02,43,16.60
2015,07,04,02,44,16.60
2015,07,04,02,45,16.60
2015,07,04,02,46,16.60
2015,07,04,02,47,16.60
2015,07,04,02,48,16.60
2015,07,04,02,49,16.60
2015,07,04,02,50,16.60
2015,07,04,02,51,16.60
2015,07,04,02,52,16.60
2015,07,04,02,53,16.60
2015,07,04,02,54,16.60
2015,07,04,02,55,16.60
2015,07,04,02,56,16.50
2015,07,04,02,57,16.50
2015,07,04,02,58,16.50
2015,07,04,02,59,16.40
2015,07,04,03,00,16.40
2015,07,04,03,01,16.50
2015,07,04,03,02,16.50
2015,07,04,03,03,16.50
2015,07,04,03,04,16.40
2015,07,04,03,05,16.40
2015,07,04,03,06,16.40
2015,07,04,03,07,16.40
2015,07,04,03,08,16.40
2015,07,04,03,09,16.40
2015,07,04,03,10,16.40
2015,07,04,03,11,16.40
2015,07,04,03,12,16.40
2015,07,04,03,13,16.40
2015,07,04,03,14,16.40
2015,07,04,03,15,16.40
2015,07,04,03,16,16.40
2015,07,04,03,17,16.40
2015,07,04,03,18,16.40
2015,07,04,03,19,16.40
2015,07,04,03,20,16.40
2015,07,04,03,21,16.40
2015,07,04,03,22,16.40
2015,07,04,03,23,16.40
2015,07,04,03,24,16.40
2015,07,04,03,25,16.40
2015,07,04,03,26,16.40
2015,07,04,03,27,16.40
2015,07,04,03,28,16.40
2015,07,04,03,29,16.40
2015,07,04,03,30,16.40
2015,07,04,03,31,16.40
2015,07,04,03,32,16.40
2015,07,04,03,33,16.40
2015,07,04,03,34,16.40
2015,07,04,03,35,16.40
2015,07,04,03,36,16.40
2015,07,04,03,37,16.50
2015,07,04,03,38,16.60
2015,07,04,03,39,16.60
2015,07,04,03,40,16.60
2015,07,04,03,41,16.60
2015,07,04,03,42,16.60
2015,07,04,03,43,16.60
2015,07,04,03,44,16.60
2015,07,04,03,45,16.60
2015,07,04,03,46,16.60
2015,07,04,03,47,16.60
2015,07,04,03,48,16.60
2015,07,04,03,49,16.60
2015,07,04,03,50,16.60
2015,07,04,03,51,16.60
2015,07,04,03,52,16.60
2015,07,04,03,53,16.60
2015,07,04,03,54,16.70
2015,07,04,03,55,16.70
2015,07,04,03,56,16.70
2015,07,04,03,57,16.70
2015,07,04,03,58,16.70
2015,07,04,03,59,16.70
2015,07,04,04,00,16.70
2015,07,04,04,01,16.70
2015,07,04,04,02,16.70
2015,07,04,04,03,16.70
2015,07,04,04,04,16.70
2015,07,04,04,05,16.70
2015,07,04,04,06,16.70
2015,07,04,04,07,16.70
2015,07,04,04,08,16.70
2015,07,04,04,09,16.70
2015,07,04,04,10,16.70
2015,07,04,04,11,16.70
2015,07,04,04,12,16.70
2015,07,04,04,13,16.70
2015,07,04,04,14,16.70
2015,07,04,04,15,16.70
2015,07,04,04,16,16.70
2015,07,04,04,17,16.70
2015,07,04,04,18,16.70
2015,07,04,04,19,16.60
2015,07,04,04,20,16.60
2015,07,04,04,21,16.60
2015,07,04,04,22,16.60
2015,07,04,04,23,16.60
2015,07,04,04,24,16.50
2015,07,04,04,25,16.40
2015,07,04,04,26,16.40
2015,07,04,04,27,16.40
2015,07,04,04,28,16.40
2015,07,04,04,29,16.40
2015,07,04,04,30,16.40
2015,07,04,04,31,16.40
2015,07,04,04,32,16.30
2015,07,04,04,33,16.30
2015,07,04,04,34,16.30
2015,07,04,04,35,16.30
2015,07,04,04,36,16.30
2015,07,04,04,37,16.30
2015,07,04,04,38,16.30
2015,07,04,04,39,16.20
2015,07,04,04,40,16.20
2015,07,04,04,41,16.20
2015,07,04,04,42,16.20
2015,07,04,04,43,16.20
2015,07,04,04,44,16.10
2015,07,04,04,45,16.10
2015,07,04,04,46,16.10
2015,07,04,04,47,16.10
2015,07,04,04,48,16.10
2015,07,04,04,49,16.10
2015,07,04,04,50,16.10
2015,07,04,04,51,16.10
2015,07,04,04,52,16.10
2015,07,04,04,53,16.10
2015,07,04,04,54,16.10
2015,07,04,04,55,16.10
2015,07,04,04,56,16.10
2015,07,04,04,57,16.10
2015,07,04,04,58,16.10
2015,07,04,04,59,16.10
2015,07,04,05,00,16.10
2015,07,04,05,01,16.00
2015,07,04,05,02,15.90
2015,07,04,05,03,15.90
2015,07,04,05,04,15.90
2015,07,04,05,05,15.90
2015,07,04,05,06,15.90
2015,07,04,05,07,15.90
2015,07,04,05,08,15.90
2015,07,04,05,09,15.90
2015,07,04,05,10,15.80
2015,07,04,05,11,15.80
2015,07,04,05,12,15.80
2015,07,04,05,13,15.80
2015,07,04,05,14,15.80
2015,07,04,05,15,15.80
2015,07,04,05,16,15.80
2015,07,04,05,17,15.70
2015,07,04,05,18,15.70
2015,07,04,05,19,15.70
2015,07,04,05,20,15.70
2015,07,04,05,21,15.60
2015,07,04,05,22,15.60
2015,07,04,05,23,15.60
2015,07,04,05,24,15.60
2015,07,04,05,25,15.60
2015,07,04,05,26,15.50
2015,07,04,05,27,15.50
2015,07,04,05,28,15.50
2015,07,04,05,29,15.50
2015,07,04,05,30,15.50
2015,07,04,05,31,15.50
2015,07,04,05,32,15.50
2015,07,04,05,33,15.50
2015,07,04,05,34,15.50
2015,07,04,05,35,15.50
2015,07,04,05,36,15.50
2015,07,04,05,37,15.40
2015,07,04,05,38,15.40
2015,07,04,05,39,15.40
2015,07,04,05,40,15.40
2015,07,04,05,41,15.40
2015,07,04,05,42,15.40
2015,07,04,05,43,15.40
2015,07,04,05,44,15.40
2015,07,04,05,45,15.40
2015,07,04,05,46,15.40
2015,07,04,05,47,15.40
2015,07,04,05,48,15.40
2015,07,04,05,49,15.40
2015,07,04,05,50,15.40
2015,07,04,05,51,15.40
2015,07,04,05,52,15.40
2015,07,04,05,53,15.40
2015,07,04,05,54,15.40
2015,07,04,05,55,15.40
2015,07,04,05,56,15.40
2015,07,04,05,57,15.40
2015,07,04,05,58,15.40
2015,07,04,05,59,15.40
2015,07,04,06,00,15.30
2015,07,04,06,01,15.30
2015,07,04,06,02,15.30
2015,07,04,06,03,15.30
2015,07,04,06,04,15.30
2015,07,04,06,05,15.30
2015,07,04,06,06,15.30
2015,07,04,06,07,15.30
2015,07,04,06,08,15.30
2015,07,04,06,09,15.30
2015,07,04,06,10,15.30
2015,07,04,06,11,15.30
2015,07,04,06,12,15.30
2015,07,04,06,13,15.30
2015,07,04,06,14,15.30
2015,07,04,06,15,15.30
2015,07,04,06,16,15.30
2015,07,04,06,17,15.30
2015,07,04,06,18,15.40
2015,07,04,06,19,15.40
2015,07,04,06,20,15.40
2015,07,04,06,21,15.40
2015,07,04,06,22,15.40
2015,07,04,06,23,15.40
2015,07,04,06,24,15.50
2015,07,04,06,25,15.50
2015,07,04,06,26,15.50
2015,07,04,06,27,15.50
2015,07,04,06,28,15.60
2015,07,04,06,29,15.60
2015,07,04,06,30,15.60
2015,07,04,06,31,15.60
2015,07,04,06,32,15.70
2015,07,04,06,33,15.70
2015,07,04,06,34,15.80
2015,07,04,06,35,15.80
2015,07,04,06,36,15.80
2015,07,04,06,37,15.80
2015,07,04,06,38,15.80
2015,07,04,06,39,15.90
2015,07,04,06,40,15.90
2015,07,04,06,41,16.00
2015,07,04,06,42,16.10
2015,07,04,06,43,16.10
2015,07,04,06,44,16.10
2015,07,04,06,45,16.10
2015,07,04,06,46,16.20
2015,07,04,06,47,16.20
2015,07,04,06,48,16.30
2015,07,04,06,49,16.40
2015,07,04,06,50,16.40
2015,07,04,06,51,16.60
2015,07,04,06,52,16.60
2015,07,04,06,53,16.70
2015,07,04,06,54,16.80
2015,07,04,06,55,16.90
2015,07,04,06,56,16.90
2015,07,04,06,57,17.00
2015,07,04,06,58,17.10
2015,07,04,06,59,17.20
2015,07,04,07,00,17.30
2015,07,04,07,01,17.40
2015,07,04,07,02,17.50
2015,07,04,07,03,17.60
2015,07,04,07,04,17.70
2015,07,04,07,05,17.80
2015,07,04,07,06,17.80
2015,07,04,07,07,17.90
2015,07,04,07,08,17.90
2015,07,04,07,09,18.10
2015,07,04,07,10,18.20
2015,07,04,07,11,18.20
2015,07,04,07,12,18.30
2015,07,04,07,13,18.40
2015,07,04,07,14,18.50
2015,07,04,07,15,18.50
2015,07,04,07,16,18.60
2015,07,04,07,17,18.70
2015,07,04,07,18,18.70
2015,07,04,07,19,18.80
2015,07,04,07,20,18.90
2015,07,04,07,21,18.90
2015,07,04,07,22,18.90
2015,07,04,07,23,18.90
2015,07,04,07,24,19.00
2015,07,04,07,25,19.10
2015,07,04,07,26,19.10
2015,07,04,07,27,19.20
2015,07,04,07,28,19.20
2015,07,04,07,29,19.30
2015,07,04,07,30,19.40
2015,07,04,07,31,19.50
2015,07,04,07,32,19.60
2015,07,04,07,33,19.60
2015,07,04,07,34,19.70
2015,07,04,07,35,19.70
2015,07,04,07,36,19.80
2015,07,04,07,37,19.80
2015,07,04,07,38,19.90
2015,07,04,07,39,20.00
2015,07,04,07,40,20.10
2015,07,04,07,41,20.20
2015,07,04,07,42,20.20
2015,07,04,07,43,20.30
2015,07,04,07,44,20.40
2015,07,04,07,45,20.50
2015,07,04,07,46,20.60
2015,07,04,07,47,20.70
2015,07,04,07,48,20.80
2015,07,04,07,49,20.90
2015,07,04,07,50,21.00
2015,07,04,07,51,21.10
2015,07,04,07,52,21.10
2015,07,04,07,53,21.20
2015,07,04,07,54,21.20
2015,07,04,07,55,21.20
2015,07,04,07,56,21.30
2015,07,04,07,57,21.30
2015,07,04,07,58,21.30
2015,07,04,07,59,21.30
2015,07,04,08,00,21.30
2015,07,04,08,01,21.20
2015,07,04,08,02,21.20
2015,07,04,08,03,21.20
2015,07,04,08,04,21.30
2015,07,04,08,05,21.30
2015,07,04,08,06,21.40
2015,07,04,08,07,21.50
2015,07,04,08,08,21.60
2015,07,04,08,09,21.60
2015,07,04,08,10,21.60
2015,07,04,08,11,21.60
2015,07,04,08,12,21.60
2015,07,04,08,13,21.60
2015,07,04,08,14,21.40
2015,07,04,08,15,21.40
2015,07,04,08,16,21.40
2015,07,04,08,17,21.30
2015,07,04,08,18,21.30
2015,07,04,08,19,21.30
2015,07,04,08,20,21.30
2015,07,04,08,21,21.20
2015,07,04,08,22,21.20
2015,07,04,08,23,21.20
2015,07,04,08,24,21.30
2015,07,04,08,25,21.30
2015,07,04,08,26,21.40
2015,07,04,08,27,21.40
2015,07,04,08,28,21.40
2015,07,04,08,29,21.30
2015,07,04,08,30,21.30
2015,07,04,08,31,21.30
2015,07,04,08,32,21.20
2015,07,04,08,33,21.20
2015,07,04,08,34,21.20
2015,07,04,08,35,21.10
2015,07,04,08,36,21.10
2015,07,04,08,37,21.10
2015,07,04,08,38,21.20
2015,07,04,08,39,21.20
2015,07,04,08,40,21.20
2015,07,04,08,41,21.10
2015,07,04,08,42,21.00
2015,07,04,08,43,20.90
2015,07,04,08,44,20.90
2015,07,04,08,45,20.80
2015,07,04,08,46,20.80
2015,07,04,08,47,20.80
2015,07,04,08,48,20.80
2015,07,04,08,49,20.80
2015,07,04,08,50,20.80
2015,07,04,08,51,20.80
2015,07,04,08,52,20.70
2015,07,04,08,53,20.60
2015,07,04,08,54,20.60
2015,07,04,08,55,20.50
2015,07,04,08,56,20.50
2015,07,04,08,57,20.40
2015,07,04,08,58,20.40
2015,07,04,08,59,20.40
2015,07,04,09,00,20.30
2015,07,04,09,01,20.40
2015,07,04,09,02,20.50
2015,07,04,09,03,20.50
2015,07,04,09,04,20.60
2015,07,04,09,05,20.60
2015,07,04,09,06,20.60
2015,07,04,09,07,20.60
2015,07,04,09,08,20.60
2015,07,04,09,09,20.60
2015,07,04,09,10,20.70
2015,07,04,09,11,20.80
2015,07,04,09,12,20.80
2015,07,04,09,13,20.80
2015,07,04,09,14,20.80
2015,07,04,09,15,20.80
2015,07,04,09,16,20.80
2015,07,04,09,17,20.80
2015,07,04,09,18,20.80
2015,07,04,09,19,20.80
2015,07,04,09,20,20.80
2015,07,04,09,21,20.80
2015,07,04,09,22,20.70
2015,07,04,09,23,20.70
2015,07,04,09,24,20.50
2015,07,04,09,25,20.50
2015,07,04,09,26,20.50
2015,07,04,09,27,20.40
2015,07,04,09,28,20.30
2015,07,04,09,29,20.20
2015,07,04,09,30,20.20
2015,07,04,09,31,20.20
2015,07,04,09,32,20.10
2015,07,04,09,33,20.20
2015,07,04,09,34,20.20
2015,07,04,09,35,20.20
2015,07,04,09,36,20.30
2015,07,04,09,37,20.40
2015,07,04,09,38,20.50
2015,07,04,09,39,20.70
2015,07,04,09,40,20.90
2015,07,04,09,41,21.00
2015,07,04,09,42,21.10
2015,07,04,09,43,21.20
2015,07,04,09,44,21.20
2015,07,04,09,45,21.10
2015,07,04,09,46,21.10
2015,07,04,09,47,21.00
2015,07,04,09,48,21.00
2015,07,04,09,49,20.90
2015,07,04,09,50,20.90
2015,07,04,09,51,20.80
2015,07,04,09,52,20.80
2015,07,04,09,53,20.80
2015,07,04,09,54,20.80
2015,07,04,09,55,20.70
2015,07,04,09,56,20.70
2015,07,04,09,57,20.70
2015,07,04,09,58,20.60
2015,07,04,09,59,20.60
2015,07,04,10,00,20.50
2015,07,04,10,01,20.50
2015,07,04,10,02,20.40
2015,07,04,10,03,20.40
2015,07,04,10,04,20.30
2015,07,04,10,05,20.30
2015,07,04,10,06,20.40
2015,07,04,10,07,20.40
2015,07,04,10,08,20.40
2015,07,04,10,09,20.40
2015,07,04,10,10,20.30
2015,07,04,10,11,20.20
2015,07,04,10,12,20.20
2015,07,04,10,13,20.20
2015,07,04,10,14,20.20
2015,07,04,10,15,20.20
2015,07,04,10,16,20.30
2015,07,04,10,17,20.40
2015,07,04,10,18,20.50
2015,07,04,10,19,20.50
2015,07,04,10,20,20.50
2015,07,04,10,21,20.50
2015,07,04,10,22,20.60
2015,07,04,10,23,20.70
2015,07,04,10,24,20.70
2015,07,04,10,25,20.80
2015,07,04,10,26,20.80
2015,07,04,10,27,21.00
2015,07,04,10,28,21.00
2015,07,04,10,29,21.00
2015,07,04,10,30,21.10
2015,07,04,10,31,21.10
2015,07,04,10,32,21.10
2015,07,04,10,33,21.10
2015,07,04,10,34,21.20
2015,07,04,10,35,21.20
2015,07,04,10,36,21.30
2015,07,04,10,37,21.40
2015,07,04,10,38,21.50
2015,07,04,10,39,21.60
2015,07,04,10,40,21.50
2015,07,04,10,41,21.40
2015,07,04,10,42,21.40
2015,07,04,10,43,21.30
2015,07,04,10,44,21.30
2015,07,04,10,45,21.30
2015,07,04,10,46,21.30
2015,07,04,10,47,21.40
2015,07,04,10,48,21.40
2015,07,04,10,49,21.30
2015,07,04,10,50,21.30
2015,07,04,10,51,21.30
2015,07,04,10,52,21.30
2015,07,04,10,53,21.40
2015,07,04,10,54,21.40
2015,07,04,10,55,21.40
2015,07,04,10,56,21.40
2015,07,04,10,57,21.40
2015,07,04,10,58,21.40
2015,07,04,10,59,21.30
2015,07,04,11,00,21.30
2015,07,04,11,01,21.20
2015,07,04,11,02,21.20
2015,07,04,11,03,21.20
2015,07,04,11,04,21.20
2015,07,04,11,05,21.20
2015,07,04,11,06,21.20
2015,07,04,11,07,21.30
2015,07,04,11,08,21.30
2015,07,04,11,09,21.40
2015,07,04,11,10,21.50
2015,07,04,11,11,21.50
2015,07,04,11,12,21.50
2015,07,04,11,13,21.60
2015,07,04,11,14,21.70
2015,07,04,11,15,21.80
2015,07,04,11,16,21.80
2015,07,04,11,17,21.80
2015,07,04,11,18,21.80
2015,07,04,11,19,21.60
2015,07,04,11,20,21.40
2015,07,04,11,21,21.30
2015,07,04,11,22,21.10
2015,07,04,11,23,21.00
2015,07,04,11,24,20.90
2015,07,04,11,25,20.80
2015,07,04,11,26,20.80
2015,07,04,11,27,20.90
2015,07,04,11,28,21.00
2015,07,04,11,29,21.10
2015,07,04,11,30,21.30
2015,07,04,11,31,21.50
2015,07,04,11,32,21.60
2015,07,04,11,33,21.70
2015,07,04,11,34,21.80
2015,07,04,11,35,21.80
2015,07,04,11,36,21.90
2015,07,04,11,37,22.00
2015,07,04,11,38,22.00
2015,07,04,11,39,22.10
2015,07,04,11,40,22.10
2015,07,04,11,41,22.10
2015,07,04,11,42,22.10
2015,07,04,11,43,22.10
2015,07,04,11,44,22.20
2015,07,04,11,45,22.20
2015,07,04,11,46,22.30
2015,07,04,11,47,22.30
2015,07,04,11,48,22.30
2015,07,04,11,49,22.40
2015,07,04,11,50,22.40
2015,07,04,11,51,22.40
2015,07,04,11,52,22.30
2015,07,04,11,53,22.40
2015,07,04,11,54,22.50
2015,07,04,11,55,22.60
2015,07,04,11,56,22.60
2015,07,04,11,57,22.70
2015,07,04,11,58,22.80
2015,07,04,11,59,22.80
2015,07,04,12,00,22.90
2015,07,04,12,01,23.00
2015,07,04,12,02,23.10
2015,07,04,12,03,23.10
2015,07,04,12,04,23.20
2015,07,04,12,05,23.20
2015,07,04,12,06,23.30
2015,07,04,12,07,23.40
2015,07,04,12,08,23.50
2015,07,04,12,09,23.70
2015,07,04,12,10,23.70
2015,07,04,12,11,23.90
2015,07,04,12,12,24.00
2015,07,04,12,13,24.10
2015,07,04,12,14,24.20
2015,07,04,12,15,24.30
2015,07,04,12,16,24.30
2015,07,04,12,17,24.40
2015,07,04,12,18,24.50
2015,07,04,12,19,24.60
2015,07,04,12,20,24.60
2015,07,04,12,21,24.50
2015,07,04,12,22,24.50
2015,07,04,12,23,24.50
2015,07,04,12,24,24.50
2015,07,04,12,25,24.50
2015,07,04,12,26,24.60
2015,07,04,12,27,24.50
2015,07,04,12,28,24.50
2015,07,04,12,29,24.60
2015,07,04,12,30,24.60
2015,07,04,12,31,24.60
2015,07,04,12,32,24.60
2015,07,04,12,33,24.60
2015,07,04,12,34,24.60
2015,07,04,12,35,24.70
2015,07,04,12,36,24.70
2015,07,04,12,37,24.60
2015,07,04,12,38,24.60
2015,07,04,12,39,24.70
2015,07,04,12,40,24.80
2015,07,04,12,41,24.80
2015,07,04,12,42,24.80
2015,07,04,12,43,24.90
2015,07,04,12,44,24.90
2015,07,04,12,45,24.90
2015,07,04,12,46,24.80
2015,07,04,12,47,24.70
2015,07,04,12,48,24.80
2015,07,04,12,49,24.90
2015,07,04,12,50,24.90
2015,07,04,12,51,24.80
2015,07,04,12,52,24.80
2015,07,04,12,53,24.90
2015,07,04,12,54,24.90
2015,07,04,12,55,24.90
2015,07,04,12,56,24.90
2015,07,04,12,57,25.00
2015,07,04,12,58,25.10
2015,07,04,12,59,25.20
2015,07,04,13,00,25.40
2015,07,04,13,01,25.50
2015,07,04,13,02,25.60
2015,07,04,13,03,25.60
2015,07,04,13,04,25.60
2015,07,04,13,05,25.60
2015,07,04,13,06,25.50
2015,07,04,13,07,25.50
2015,07,04,13,08,25.60
2015,07,04,13,09,25.60
2015,07,04,13,10,25.70
2015,07,04,13,11,25.80
2015,07,04,13,12,25.80
2015,07,04,13,13,25.90
2015,07,04,13,14,25.90
2015,07,04,13,15,25.80
2015,07,04,13,16,25.80
2015,07,04,13,17,25.80
2015,07,04,13,18,25.80
2015,07,04,13,19,25.70
2015,07,04,13,20,25.70
2015,07,04,13,21,25.70
2015,07,04,13,22,25.60
2015,07,04,13,23,25.70
2015,07,04,13,24,25.70
2015,07,04,13,25,25.80
2015,07,04,13,26,25.80
2015,07,04,13,27,25.80
2015,07,04,13,28,25.80
2015,07,04,13,29,25.80
2015,07,04,13,30,25.80
2015,07,04,13,31,25.80
2015,07,04,13,32,25.80
2015,07,04,13,33,25.90
2015,07,04,13,34,25.90
2015,07,04,13,35,25.90
2015,07,04,13,36,25.90
2015,07,04,13,37,25.90
2015,07,04,13,38,25.90
2015,07,04,13,39,26.00
2015,07,04,13,40,26.00
2015,07,04,13,41,25.90
2015,07,04,13,42,26.00
2015,07,04,13,43,26.00
2015,07,04,13,44,26.00
2015,07,04,13,45,26.00
2015,07,04,13,46,26.00
2015,07,04,13,47,26.00
2015,07,04,13,48,26.00
2015,07,04,13,49,26.00
2015,07,04,13,50,25.90
2015,07,04,13,51,25.80
2015,07,04,13,52,25.60
2015,07,04,13,53,25.50
2015,07,04,13,54,25.30
2015,07,04,13,55,25.20
2015,07,04,13,56,25.00
2015,07,04,13,57,24.80
2015,07,04,13,58,24.70
2015,07,04,13,59,24.60
2015,07,04,14,00,24.50
2015,07,04,14,01,24.50
2015,07,04,14,02,24.30
2015,07,04,14,03,24.20
2015,07,04,14,04,24.10
2015,07,04,14,05,24.00
2015,07,04,14,06,23.90
2015,07,04,14,07,23.90
2015,07,04,14,08,23.80
2015,07,04,14,09,23.80
2015,07,04,14,10,23.80
2015,07,04,14,11,23.80
2015,07,04,14,12,23.90
2015,07,04,14,13,24.00
2015,07,04,14,14,24.10
2015,07,04,14,15,24.20
2015,07,04,14,16,24.20
2015,07,04,14,17,24.20
2015,07,04,14,18,24.10
2015,07,04,14,19,24.10
2015,07,04,14,20,23.90
2015,07,04,14,21,23.70
2015,07,04,14,22,23.60
2015,07,04,14,23,23.50
2015,07,04,14,24,23.40
2015,07,04,14,25,23.40
2015,07,04,14,26,23.40
2015,07,04,14,27,23.50
2015,07,04,14,28,23.60
2015,07,04,14,29,23.60
2015,07,04,14,30,23.60
2015,07,04,14,31,23.60
2015,07,04,14,32,23.70
2015,07,04,14,33,23.70
2015,07,04,14,34,23.80
2015,07,04,14,35,23.90
2015,07,04,14,36,24.00
2015,07,04,14,37,24.10
2015,07,04,14,38,24.10
2015,07,04,14,39,24.10
2015,07,04,14,40,24.30
2015,07,04,14,41,24.30
2015,07,04,14,42,24.30
2015,07,04,14,43,24.30
2015,07,04,14,44,24.40
2015,07,04,14,45,24.30
2015,07,04,14,46,24.20
2015,07,04,14,47,24.10
2015,07,04,14,48,24.10
2015,07,04,14,49,24.10
2015,07,04,14,50,24.10
2015,07,04,14,51,24.10
2015,07,04,14,52,24.20
2015,07,04,14,53,24.20
2015,07,04,14,54,24.10
2015,07,04,14,55,24.10
2015,07,04,14,56,24.10
2015,07,04,14,57,24.10
2015,07,04,14,58,24.10
2015,07,04,14,59,24.10
2015,07,04,15,00,24.20
2015,07,04,15,01,24.20
2015,07,04,15,02,24.20
2015,07,04,15,03,24.30
2015,07,04,15,04,24.30
2015,07,04,15,05,24.30
2015,07,04,15,06,24.30
2015,07,04,15,07,24.40
2015,07,04,15,08,24.40
2015,07,04,15,09,24.30
2015,07,04,15,10,24.30
2015,07,04,15,11,24.30
2015,07,04,15,12,24.30
2015,07,04,15,13,24.30
2015,07,04,15,14,24.40
2015,07,04,15,15,24.30
2015,07,04,15,16,24.40
2015,07,04,15,17,24.40
2015,07,04,15,18,24.40
2015,07,04,15,19,24.30
2015,07,04,15,20,24.20
2015,07,04,15,21,24.00
2015,07,04,15,22,23.90
2015,07,04,15,23,23.80
2015,07,04,15,24,23.70
2015,07,04,15,25,23.80
2015,07,04,15,26,23.80
2015,07,04,15,27,23.80
2015,07,04,15,28,24.00
2015,07,04,15,29,24.10
2015,07,04,15,30,24.20
2015,07,04,15,31,24.30
2015,07,04,15,32,24.30
2015,07,04,15,33,24.30
2015,07,04,15,34,24.20
2015,07,04,15,35,24.20
2015,07,04,15,36,24.30
2015,07,04,15,37,24.40
2015,07,04,15,38,24.40
2015,07,04,15,39,24.50
2015,07,04,15,40,24.50
2015,07,04,15,41,24.60
2015,07,04,15,42,24.70
2015,07,04,15,43,24.70
2015,07,04,15,44,24.70
2015,07,04,15,45,24.70
2015,07,04,15,46,24.80
2015,07,04,15,47,24.90
2015,07,04,15,48,25.00
2015,07,04,15,49,25.00
2015,07,04,15,50,24.90
2015,07,04,15,51,24.90
2015,07,04,15,52,24.80
2015,07,04,15,53,24.80
2015,07,04,15,54,24.70
2015,07,04,15,55,24.60
2015,07,04,15,56,24.50
2015,07,04,15,57,24.40
2015,07,04,15,58,24.30
2015,07,04,15,59,24.30
2015,07,04,16,00,24.30
2015,07,04,16,01,24.20
2015,07,04,16,02,24.10
2015,07,04,16,03,24.10
2015,07,04,16,04,24.10
2015,07,04,16,05,24.00
2015,07,04,16,06,23.90
2015,07,04,16,07,23.80
2015,07,04,16,08,23.70
2015,07,04,16,09,23.70
2015,07,04,16,10,23.70
2015,07,04,16,11,23.70
2015,07,04,16,12,23.80
2015,07,04,16,13,23.70
2015,07,04,16,14,23.70
2015,07,04,16,15,23.80
2015,07,04,16,16,23.80
2015,07,04,16,17,23.80
2015,07,04,16,18,23.90
2015,07,04,16,19,24.00
2015,07,04,16,20,24.10
2015,07,04,16,21,24.30
2015,07,04,16,22,24.40
2015,07,04,16,23,24.50
2015,07,04,16,24,24.60
2015,07,04,16,25,24.70
2015,07,04,16,26,24.80
2015,07,04,16,27,24.80
2015,07,04,16,28,24.80
2015,07,04,16,29,24.80
2015,07,04,16,30,24.90
2015,07,04,16,31,24.90
2015,07,04,16,32,24.90
2015,07,04,16,33,25.00
2015,07,04,16,34,25.00
2015,07,04,16,35,25.00
2015,07,04,16,36,25.00
2015,07,04,16,37,25.00
2015,07,04,16,38,25.00
2015,07,04,16,39,25.00
2015,07,04,16,40,24.90
2015,07,04,16,41,24.80
2015,07,04,16,42,24.70
2015,07,04,16,43,24.70
2015,07,04,16,44,24.70
2015,07,04,16,45,24.70
2015,07,04,16,46,24.60
2015,07,04,16,47,24.60
2015,07,04,16,48,24.70
2015,07,04,16,49,24.80
2015,07,04,16,50,24.80
2015,07,04,16,51,24.80
2015,07,04,16,52,24.80
2015,07,04,16,53,24.90
2015,07,04,16,54,25.00
2015,07,04,16,55,25.20
2015,07,04,16,56,25.30
2015,07,04,16,57,25.30
2015,07,04,16,58,25.30
2015,07,04,16,59,25.30
2015,07,04,17,00,25.30
2015,07,04,17,01,25.20
2015,07,04,17,02,25.20
2015,07,04,17,03,25.20
2015,07,04,17,04,25.20
2015,07,04,17,05,25.20
2015,07,04,17,06,25.10
2015,07,04,17,07,25.10
2015,07,04,17,08,24.90
2015,07,04,17,09,24.80
2015,07,04,17,10,24.70
2015,07,04,17,11,24.70
2015,07,04,17,12,24.70
2015,07,04,17,13,24.70
2015,07,04,17,14,24.60
2015,07,04,17,15,24.60
2015,07,04,17,16,24.60
2015,07,04,17,17,24.60
2015,07,04,17,18,24.50
2015,07,04,17,19,24.50